| time (UTC) | temp F | wind direction | speed MPH | gust MPH | rain 1hr in | rain 24hr in | rain mn in | humidity % | barometer mb |
| 20260506050946 | 41 | 32 | 0.0 | 0.0 | 0.00 | 0.00 | 0.00 | 81 | 1012.8 |
| 20260506044933 | 41 | 32 | 0.0 | 2.0 | 0.00 | 0.00 | 0.00 | 82 | 1012.7 |
| 20260506043947 | 41 | 29 | 0.0 | 0.0 | 0.00 | 0.00 | 0.00 | 81 | 1012.8 |
| 20260506042947 | 41 | 29 | 0.0 | 0.0 | 0.00 | 0.00 | 0.00 | 81 | 1012.8 |
| 20260506041935 | 42 | 28 | 0.0 | 0.0 | 0.00 | 0.00 | 0.00 | 80 | 1012.8 |
| 20260506040944 | 42 | 29 | 0.0 | 0.0 | 0.00 | 0.00 | 0.00 | 80 | 1012.8 |
| 20260506035945 | 42 | 30 | 0.0 | 0.0 | 0.00 | 0.00 | 0.00 | 80 | 1012.9 |
| 20260506034950 | 42 | 31 | 0.0 | 0.0 | 0.00 | 0.00 | 0.00 | 79 | 1013.0 |
| 20260506033944 | 42 | 29 | 0.0 | 0.0 | 0.00 | 0.00 | 0.00 | 79 | 1013.0 |
| 20260506032946 | 43 | 26 | 0.0 | 0.0 | 0.00 | 0.00 | 0.00 | 78 | 1012.9 |
| 20260506031932 | 43 | 28 | 0.0 | 4.0 | 0.00 | 0.00 | 0.00 | 78 | 1013.0 |
| 20260506030942 | 43 | 342 | 0.0 | 0.0 | 0.00 | 0.00 | 0.00 | 78 | 1013.2 |
| 20260506025950 | 43 | 36 | 0.0 | 0.0 | 0.00 | 0.00 | 0.00 | 78 | 1013.1 |
| 20260506024942 | 43 | 34 | 0.0 | 0.0 | 0.00 | 0.00 | 0.00 | 77 | 1013.1 |
| 20260506023951 | 43 | 40 | 0.0 | 3.0 | 0.00 | 0.00 | 0.00 | 77 | 1013.3 |
| 20260506022950 | 43 | 28 | 0.0 | 3.0 | 0.00 | 0.00 | 0.00 | 76 | 1013.3 |
| 20260506021953 | 44 | 335 | 1.0 | 4.0 | 0.00 | 0.00 | 0.00 | 76 | 1013.2 |
| 20260506020925 | 44 | 347 | 0.0 | 3.0 | 0.00 | 0.00 | 0.00 | 76 | 1013.3 |
| 20260506015925 | 44 | 38 | 0.0 | 3.0 | 0.00 | 0.00 | 0.00 | 75 | 1013.3 |
| 20260506014923 | 44 | 292 | 0.0 | 3.0 | 0.00 | 0.00 | 0.00 | 75 | 1013.3 |
| 20260506013914 | 44 | 44 | 0.0 | 3.0 | 0.00 | 0.00 | 0.00 | 74 | 1013.4 |
| 20260506012918 | 45 | 333 | 0.0 | 3.0 | 0.00 | 0.00 | 0.00 | 73 | 1013.4 |
| 20260506011912 | 45 | 345 | 0.0 | 4.0 | 0.00 | 0.00 | 0.00 | 74 | 1013.4 |
| 20260506010920 | 44 | 323 | 0.0 | 2.0 | 0.00 | 0.00 | 0.00 | 74 | 1013.3 |
| 20260506005925 | 44 | 355 | 0.0 | 1.0 | 0.00 | 0.00 | 0.00 | 74 | 1013.6 |
| 20260506004915 | 44 | 355 | 0.0 | 4.0 | 0.00 | 0.00 | 0.00 | 74 | 1013.7 |
| 20260506003929 | 44 | 360 | 0.0 | 4.0 | 0.00 | 0.00 | 0.00 | 73 | 1013.7 |
| 20260506002911 | 45 | 321 | 0.0 | 4.0 | 0.00 | 0.00 | 0.00 | 73 | 1013.7 |
| 20260506001921 | 45 | 344 | 0.0 | 2.0 | 0.00 | 0.00 | 0.00 | 72 | 1013.8 |
| 20260506000929 | 45 | 5 | 0.0 | 1.0 | 0.00 | 0.00 | 0.00 | 71 | 1013.8 |
| 20260505235917 | 46 | 355 | 0.0 | 3.0 | 0.00 | 0.00 | 0.00 | 71 | 1013.8 |
| 20260505234927 | 46 | 42 | 0.0 | 7.0 | 0.00 | 0.00 | 0.00 | 70 | 1013.8 |
| 20260505233916 | 45 | 340 | 1.0 | 7.0 | 0.00 | 0.00 | 0.00 | 72 | 1013.7 |
| 20260505232921 | 45 | 40 | 0.0 | 0.0 | 0.00 | 0.00 | 0.00 | 74 | 1013.8 |
| 20260505231910 | 45 | 42 | 0.0 | 3.0 | 0.00 | 0.00 | 0.00 | 73 | 1013.8 |
| 20260505230920 | 46 | 40 | 0.0 | 3.0 | 0.00 | 0.00 | 0.00 | 72 | 1013.8 |
| 20260505225924 | 46 | 37 | 0.0 | 4.0 | 0.00 | 0.00 | 0.00 | 72 | 1013.7 |
| 20260505224913 | 45 | 26 | 0.0 | 7.0 | 0.00 | 0.00 | 0.00 | 74 | 1013.7 |
| 20260505223927 | 45 | 27 | 0.0 | 4.0 | 0.00 | 0.00 | 0.00 | 74 | 1013.8 |
| 20260505222930 | 45 | 32 | 0.0 | 2.0 | 0.00 | 0.00 | 0.00 | 74 | 1013.8 |
| 20260505221920 | 45 | 337 | 0.0 | 5.0 | 0.00 | 0.00 | 0.00 | 74 | 1013.8 |
| 20260505220911 | 45 | 331 | 1.0 | 8.0 | 0.00 | 0.00 | 0.00 | 74 | 1013.9 |
| 20260505215920 | 45 | 311 | 1.0 | 5.0 | 0.00 | 0.00 | 0.00 | 74 | 1014.0 |
| 20260505214929 | 46 | 32 | 0.0 | 7.0 | 0.00 | 0.00 | 0.00 | 73 | 1014.0 |
| 20260505213919 | 46 | 27 | 2.0 | 8.0 | 0.00 | 0.00 | 0.00 | 73 | 1014.1 |
| 20260505212923 | 46 | 329 | 2.0 | 8.0 | 0.00 | 0.00 | 0.00 | 73 | 1014.3 |
| 20260505211916 | 46 | 34 | 1.0 | 7.0 | 0.00 | 0.00 | 0.00 | 71 | 1014.2 |
| 20260505210927 | 47 | 15 | 1.0 | 10.0 | 0.00 | 0.00 | 0.00 | 70 | 1014.2 |
| 20260505205927 | 48 | 327 | 1.0 | 11.0 | 0.00 | 0.00 | 0.00 | 68 | 1014.4 |
| 20260505204921 | 48 | 322 | 2.0 | 12.0 | 0.00 | 0.00 | 0.00 | 65 | 1014.2 |
| 20260505203912 | 49 | 355 | 2.0 | 10.0 | 0.00 | 0.00 | 0.00 | 63 | 1014.1 |
| 20260505202929 | 49 | 346 | 0.0 | 6.0 | 0.00 | 0.00 | 0.00 | 59 | 1013.8 |
| 20260505201918 | 50 | 29 | 1.0 | 10.0 | 0.00 | 0.00 | 0.00 | 58 | 1013.6 |
| 20260505200929 | 50 | 344 | 1.0 | 5.0 | 0.00 | 0.00 | 0.00 | 58 | 1013.6 |
| 20260505195928 | 50 | 323 | 0.0 | 2.0 | 0.00 | 0.00 | 0.00 | 57 | 1013.4 |
| 20260505194918 | 50 | 331 | 0.0 | 4.0 | 0.00 | 0.00 | 0.00 | 56 | 1013.3 |
| 20260505193929 | 51 | 360 | 2.0 | 7.0 | 0.00 | 0.00 | 0.00 | 55 | 1013.3 |
| 20260505192917 | 51 | 313 | 1.0 | 8.0 | 0.00 | 0.00 | 0.00 | 54 | 1013.4 |
| 20260505191927 | 52 | 5 | 0.0 | 5.0 | 0.00 | 0.00 | 0.00 | 53 | 1013.3 |
| 20260505190917 | 52 | 331 | 2.0 | 7.0 | 0.00 | 0.00 | 0.00 | 52 | 1013.3 |
| 20260505185922 | 53 | 318 | 1.0 | 6.0 | 0.00 | 0.04 | 0.00 | 50 | 1013.2 |
| 20260505184915 | 54 | 355 | 1.0 | 5.0 | 0.00 | 0.04 | 0.00 | 49 | 1013.0 |
| 20260505183925 | 54 | 305 | 0.0 | 7.0 | 0.00 | 0.04 | 0.00 | 49 | 1013.1 |
| 20260505182927 | 55 | 314 | 1.0 | 8.0 | 0.00 | 0.04 | 0.00 | 48 | 1012.9 |
| 20260505181917 | 56 | 15 | 2.0 | 8.0 | 0.00 | 0.04 | 0.00 | 47 | 1012.8 |
| 20260505180928 | 56 | 341 | 0.0 | 8.0 | 0.00 | 0.04 | 0.00 | 47 | 1012.6 |
| 20260505175913 | 57 | 328 | 1.0 | 9.0 | 0.00 | 0.04 | 0.00 | 47 | 1012.6 |
| 20260505174923 | 57 | 316 | 1.0 | 7.0 | 0.00 | 0.04 | 0.00 | 47 | 1012.7 |
| 20260505173915 | 57 | 298 | 2.0 | 10.0 | 0.00 | 0.04 | 0.00 | 45 | 1012.7 |
| 20260505172918 | 58 | 311 | 1.0 | 9.0 | 0.00 | 0.04 | 0.00 | 46 | 1012.7 |
| 20260505171928 | 58 | 300 | 2.0 | 7.0 | 0.00 | 0.04 | 0.00 | 44 | 1012.6 |
| 20260505170916 | 58 | 257 | 2.0 | 10.0 | 0.00 | 0.04 | 0.00 | 45 | 1012.7 |
| 20260505165925 | 58 | 266 | 2.0 | 11.0 | 0.00 | 0.04 | 0.00 | 43 | 1012.7 |
| 20260505164915 | 58 | 329 | 1.0 | 9.0 | 0.00 | 0.04 | 0.00 | 44 | 1012.7 |
| 20260505163923 | 59 | 355 | 2.0 | 6.0 | 0.00 | 0.04 | 0.00 | 41 | 1012.7 |
| 20260505162926 | 59 | 295 | 2.0 | 13.0 | 0.00 | 0.04 | 0.00 | 43 | 1012.6 |
| 20260505161919 | 59 | 309 | 1.0 | 7.0 | 0.00 | 0.04 | 0.00 | 43 | 1012.6 |
| 20260505160929 | 59 | 37 | 1.0 | 8.0 | 0.00 | 0.04 | 0.00 | 43 | 1012.6 |
| 20260505152923 | 59 | 304 | 2.0 | 10.0 | 0.00 | 0.20 | 0.00 | 43 | 1012.6 |
| 20260505151910 | 59 | 355 | 4.0 | 14.0 | 0.00 | 0.20 | 0.00 | 43 | 1012.6 |
| 20260505150920 | 58 | 306 | 3.0 | 11.0 | 0.00 | 0.20 | 0.00 | 43 | 1012.6 |
| 20260505125033 | 54 | 57 | 0.0 | 0.0 | 0.00 | 0.20 | 0.00 | 53 | 1013.1 |
| 20260505123934 | 54 | 57 | 0.0 | 4.0 | 0.00 | 0.20 | 0.00 | 54 | 1013.2 |
| 20260505122937 | 54 | 57 | 1.0 | 6.0 | 0.00 | 0.20 | 0.00 | 52 | 1013.1 |
| 20260505121950 | 55 | 51 | 4.0 | 9.0 | 0.00 | 0.20 | 0.00 | 55 | 1013.1 |
| 20260505120938 | 57 | 180 | 0.0 | 0.0 | 0.00 | 0.20 | 0.00 | 54 | 1013.2 |
| 20260505115941 | 58 | 187 | 0.0 | 0.0 | 0.00 | 0.20 | 0.00 | 52 | 1013.3 |
| 20260505114947 | 58 | 187 | 0.0 | 0.0 | 0.00 | 0.20 | 0.00 | 48 | 1013.3 |
| 20260505113935 | 59 | 187 | 0.0 | 5.0 | 0.00 | 0.20 | 0.00 | 50 | 1013.3 |
| 20260505112941 | 57 | 192 | 1.0 | 5.0 | 0.00 | 0.20 | 0.00 | 56 | 1013.5 |
| 20260505111951 | 56 | 238 | 0.0 | 0.0 | 0.00 | 0.20 | 0.00 | 53 | 1013.6 |
| 20260505110938 | 55 | 239 | 0.0 | 0.0 | 0.00 | 0.20 | 0.00 | 59 | 1013.6 |
| 20260505102034 | 53 | 256 | 1.0 | 4.0 | 0.00 | 0.20 | 0.00 | 60 | 1013.9 |
| 20260505100939 | 52 | 267 | 0.0 | 4.0 | 0.00 | 0.20 | 0.00 | 56 | 1014.0 |
| 20260505095943 | 52 | 267 | 0.0 | 3.0 | 0.00 | 0.20 | 0.00 | 59 | 1013.9 |
| 20260505094951 | 52 | 267 | 0.0 | 0.0 | 0.00 | 0.20 | 0.00 | 57 | 1013.8 |
| 20260505093940 | 52 | 267 | 0.0 | 0.0 | 0.00 | 0.20 | 0.00 | 58 | 1013.7 |
| 20260505092947 | 53 | 267 | 0.0 | 0.0 | 0.00 | 0.20 | 0.00 | 57 | 1013.7 |
| 20260505091941 | 53 | 267 | 0.0 | 8.0 | 0.00 | 0.20 | 0.00 | 58 | 1013.8 |
| 20260505090949 | 52 | 313 | 0.0 | 0.0 | 0.00 | 0.20 | 0.00 | 54 | 1013.8 |
| 20260505085933 | 52 | 338 | 0.0 | 0.0 | 0.00 | 0.20 | 0.00 | 58 | 1013.8 |
| 20260505084941 | 51 | 347 | 0.0 | 0.0 | 0.00 | 0.20 | 0.00 | 59 | 1013.7 |
| 20260505083941 | 51 | 345 | 0.0 | 0.0 | 0.00 | 0.20 | 0.00 | 56 | 1013.8 |
| 20260505082949 | 51 | 355 | 0.0 | 6.0 | 0.00 | 0.20 | 0.00 | 56 | 1013.9 |
| 20260505081917 | 51 | 342 | 0.0 | 6.0 | 0.00 | 0.20 | 0.00 | 57 | 1013.8 |
| 20260505080927 | 51 | 338 | 2.0 | 8.0 | 0.00 | 0.20 | 0.00 | 56 | 1013.7 |
| 20260505075910 | 50 | 327 | 0.0 | 6.0 | 0.00 | 0.20 | 0.00 | 59 | 1013.7 |
| 20260505073917 | 49 | 29 | 0.0 | 0.0 | 0.00 | 0.20 | 0.00 | 63 | 1013.8 |
| 20260505072921 | 48 | 35 | 0.0 | 6.0 | 0.00 | 0.20 | 0.00 | 64 | 1013.8 |
| 20260505071914 | 48 | 32 | 0.0 | 0.0 | 0.00 | 0.20 | 0.00 | 66 | 1013.8 |
| 20260505071004 | 47 | 32 | 0.0 | 4.0 | 0.00 | 0.20 | 0.00 | 67 | 1013.8 |
| 20260505065924 | 47 | 44 | 0.0 | 4.0 | 0.00 | 0.20 | 0.00 | 67 | 1013.8 |
| 20260505064912 | 47 | 329 | 0.0 | 6.0 | 0.00 | 0.20 | 0.00 | 68 | 1013.8 |
| 20260505063921 | 46 | 323 | 0.0 | 5.0 | 0.00 | 0.20 | 0.00 | 68 | 1013.7 |
| 20260505062929 | 46 | 355 | 0.0 | 7.0 | 0.00 | 0.20 | 0.00 | 68 | 1013.6 |
| 20260505061919 | 46 | 9 | 0.0 | 8.0 | 0.00 | 0.20 | 0.00 | 67 | 1013.6 |
| 20260505060928 | 46 | 360 | 2.0 | 7.0 | 0.00 | 0.20 | 0.00 | 68 | 1013.5 |
| 20260505055911 | 46 | 333 | 2.0 | 6.0 | 0.00 | 0.20 | 0.00 | 69 | 1013.4 |
| 20260505054925 | 46 | 34 | 1.0 | 6.0 | 0.00 | 0.20 | 0.00 | 71 | 1013.5 |
| 20260505053916 | 46 | 55 | 0.0 | 6.0 | 0.00 | 0.20 | 0.00 | 70 | 1013.4 |